GOPLM EGHH-EGMD

Flight info

Callsign GOPLM
Flight time N/A
Altitude 3000
Route EGKA
Aircraft C172/L-SFG/C

Departure

Time 2026-05-06 15:49
Airport Bournemouth Airport (EGHH)

Arrival

Time N/A
Airport Lydd London Ashford Airport (EGMD)
Time Latitude Longitude Altitude Speed Heading
2026-05-06 15:32 50.78730 -1.84530 39 ft 0 kts 350°
2026-05-06 15:43 50.78732 -1.84531 39 ft 1 kts 356°
2026-05-06 15:44 50.78746 -1.84517 39 ft 8 kts 43°
2026-05-06 15:44 50.78766 -1.84491 39 ft 0 kts 38°
2026-05-06 15:44 50.78773 -1.84482 39 ft 3 kts 48°
2026-05-06 15:44 50.78765 -1.84466 39 ft 4 kts 171°
2026-05-06 15:45 50.78683 -1.84450 38 ft 17 kts 172°
2026-05-06 15:45 50.78574 -1.84430 38 ft 15 kts 175°
2026-05-06 15:45 50.78471 -1.84428 37 ft 14 kts 179°
2026-05-06 15:45 50.78379 -1.84428 38 ft 12 kts 179°
2026-05-06 15:46 50.78314 -1.84469 39 ft 10 kts 239°
2026-05-06 15:46 50.78276 -1.84557 39 ft 10 kts 231°
2026-05-06 15:46 50.78222 -1.84632 38 ft 12 kts 214°
2026-05-06 15:46 50.78150 -1.84713 40 ft 14 kts 227°
2026-05-06 15:47 50.78127 -1.84847 39 ft 12 kts 275°
2026-05-06 15:47 50.78076 -1.84924 40 ft 10 kts 199°
2026-05-06 15:47 50.78017 -1.84958 41 ft 8 kts 200°
2026-05-06 15:47 50.77984 -1.84978 41 ft 10 kts 199°
2026-05-06 15:48 50.77891 -1.85003 42 ft 7 kts 122°
2026-05-06 15:48 50.77900 -1.84906 42 ft 23 kts 72°
2026-05-06 15:48 50.77992 -1.84352 39 ft 78 kts 73°
2026-05-06 15:48 50.78129 -1.83434 242 ft 88 kts 71°
2026-05-06 15:49 50.78298 -1.82447 458 ft 94 kts 68°
2026-05-06 15:49 50.78351 -1.81421 753 ft 97 kts 106°
2026-05-06 15:49 50.77980 -1.80428 833 ft 112 kts 118°
2026-05-06 15:49 50.77562 -1.79353 903 ft 117 kts 118°
2026-05-06 15:50 50.77120 -1.78252 1030 ft 114 kts 117°
2026-05-06 15:50 50.76710 -1.77255 1259 ft 106 kts 118°
2026-05-06 15:50 50.76332 -1.76236 1430 ft 108 kts 115°
2026-05-06 15:50 50.75947 -1.75211 1621 ft 110 kts 115°
2026-05-06 15:51 50.75543 -1.74176 1804 ft 111 kts 117°
2026-05-06 15:51 50.75185 -1.73069 1906 ft 120 kts 110°
2026-05-06 15:51 50.74809 -1.71833 1906 ft 126 kts 111°
2026-05-06 15:51 50.74442 -1.70590 1902 ft 124 kts 111°
2026-05-06 15:52 50.74095 -1.69368 1893 ft 122 kts 111°
2026-05-06 15:52 50.73733 -1.68172 1893 ft 119 kts 111°
2026-05-06 15:52 50.73373 -1.67010 1898 ft 118 kts 110°
2026-05-06 15:52 50.73021 -1.65832 1895 ft 118 kts 111°
2026-05-06 15:53 50.72680 -1.64665 1888 ft 116 kts 110°
2026-05-06 15:53 50.72334 -1.63521 1889 ft 115 kts 110°
2026-05-06 15:53 50.71984 -1.62375 1891 ft 116 kts 111°
2026-05-06 15:53 50.71640 -1.61216 1891 ft 116 kts 111°
2026-05-06 15:54 50.71310 -1.60062 1890 ft 114 kts 110°
2026-05-06 15:54 50.70974 -1.58928 1886 ft 114 kts 111°
2026-05-06 15:54 50.70639 -1.57793 1888 ft 115 kts 110°
2026-05-06 15:54 50.70472 -1.56617 1886 ft 107 kts 71°
2026-05-06 15:55 50.70656 -1.55483 1900 ft 108 kts 72°
2026-05-06 15:55 50.70852 -1.54324 1897 ft 112 kts 71°
2026-05-06 15:55 50.71050 -1.53139 1898 ft 112 kts 71°
2026-05-06 15:55 50.71256 -1.51952 1895 ft 111 kts 70°
2026-05-06 15:56 50.71455 -1.50780 1894 ft 110 kts 70°
2026-05-06 15:56 50.71650 -1.49621 1893 ft 109 kts 70°
2026-05-06 15:56 50.71835 -1.48462 1888 ft 109 kts 70°
2026-05-06 15:56 50.72028 -1.47310 1887 ft 109 kts 71°
2026-05-06 15:57 50.72234 -1.46164 1885 ft 109 kts 70°
2026-05-06 15:57 50.72426 -1.45012 1885 ft 109 kts 71°
2026-05-06 15:57 50.72621 -1.43855 1885 ft 109 kts 71°
2026-05-06 15:57 50.72808 -1.42693 1882 ft 109 kts 70°
2026-05-06 15:58 50.72984 -1.41534 1889 ft 108 kts 71°
2026-05-06 15:58 50.73174 -1.40389 1885 ft 107 kts 68°
2026-05-06 15:58 50.73424 -1.39281 1893 ft 108 kts 65°
2026-05-06 15:58 50.73669 -1.38172 1894 ft 109 kts 65°
2026-05-06 15:59 50.73924 -1.37041 1897 ft 109 kts 65°
2026-05-06 15:59 50.74171 -1.35914 1897 ft 110 kts 66°
2026-05-06 15:59 50.74422 -1.34774 1893 ft 110 kts 67°
2026-05-06 15:59 50.74686 -1.33646 1897 ft 109 kts 66°
2026-05-06 16:00 50.74952 -1.32505 1899 ft 112 kts 66°
2026-05-06 16:00 50.75207 -1.31333 1904 ft 114 kts 66°
2026-05-06 16:00 50.75475 -1.30155 1899 ft 114 kts 66°
2026-05-06 16:00 50.75744 -1.28993 1895 ft 112 kts 65°
2026-05-06 16:01 50.75998 -1.27828 1896 ft 112 kts 66°
2026-05-06 16:01 50.76246 -1.26673 1891 ft 109 kts 66°
2026-05-06 16:01 50.76495 -1.25553 1885 ft 107 kts 65°
2026-05-06 16:01 50.76738 -1.24461 1887 ft 108 kts 65°
2026-05-06 16:02 50.76969 -1.23332 1904 ft 106 kts 66°
2026-05-06 16:02 50.77205 -1.22220 1913 ft 105 kts 66°
2026-05-06 16:02 50.77447 -1.21139 1915 ft 106 kts 66°
2026-05-06 16:02 50.77693 -1.20032 1920 ft 108 kts 66°
2026-05-06 16:03 50.77937 -1.18910 1921 ft 107 kts 65°
2026-05-06 16:03 50.78169 -1.17793 1920 ft 107 kts 66°
2026-05-06 16:03 50.78137 -1.16617 1924 ft 115 kts 108°
2026-05-06 16:03 50.77853 -1.15443 1924 ft 113 kts 101°
2026-05-06 16:04 50.77625 -1.14255 1926 ft 113 kts 101°
2026-05-06 16:04 50.77403 -1.13053 1924 ft 114 kts 101°
2026-05-06 16:04 50.77186 -1.11858 1921 ft 113 kts 101°
2026-05-06 16:04 50.76973 -1.10648 1925 ft 115 kts 99°
2026-05-06 16:05 50.76733 -1.09430 1926 ft 117 kts 101°
2026-05-06 16:05 50.76493 -1.08201 1926 ft 117 kts 101°
2026-05-06 16:05 50.76271 -1.07020 2012 ft 112 kts 101°
2026-05-06 16:05 50.76058 -1.05808 2013 ft 115 kts 101°
2026-05-06 16:06 50.75847 -1.04586 2010 ft 116 kts 101°
2026-05-06 16:06 50.75619 -1.03370 2008 ft 115 kts 102°
2026-05-06 16:06 50.75401 -1.02155 2007 ft 115 kts 101°
2026-05-06 16:06 50.75179 -1.00938 2010 ft 116 kts 100°
2026-05-06 16:07 50.74953 -0.99706 2011 ft 117 kts 101°
2026-05-06 16:07 50.74736 -0.98449 2013 ft 120 kts 102°
2026-05-06 16:07 50.74516 -0.97182 2012 ft 119 kts 101°
2026-05-06 16:07 50.74308 -0.95912 2016 ft 120 kts 100°
2026-05-06 16:08 50.74087 -0.94637 2014 ft 121 kts 101°
2026-05-06 16:08 50.73860 -0.93369 2014 ft 119 kts 100°
2026-05-06 16:08 50.73621 -0.92126 2010 ft 117 kts 101°
2026-05-06 16:08 50.73394 -0.90897 2008 ft 116 kts 102°
2026-05-06 16:09 50.73190 -0.89690 2007 ft 115 kts 101°
2026-05-06 16:09 50.72976 -0.88460 2002 ft 114 kts 101°
2026-05-06 16:09 50.72764 -0.87279 2001 ft 113 kts 101°
2026-05-06 16:09 50.72549 -0.86089 2002 ft 113 kts 102°
2026-05-06 16:10 50.72331 -0.84898 2002 ft 114 kts 101°
2026-05-06 16:10 50.72098 -0.83700 2001 ft 114 kts 101°
2026-05-06 16:10 50.71862 -0.82506 2005 ft 114 kts 101°
2026-05-06 16:10 50.71866 -0.81348 1999 ft 102 kts 52°
2026-05-06 16:11 50.72312 -0.80488 2011 ft 102 kts 47°
2026-05-06 16:11 50.72762 -0.79611 2014 ft 103 kts 46°
2026-05-06 16:11 50.73223 -0.78741 2018 ft 104 kts 45°
2026-05-06 16:11 50.73691 -0.77852 2019 ft 107 kts 46°
2026-05-06 16:12 50.74164 -0.76943 2014 ft 107 kts 46°
2026-05-06 16:12 50.74640 -0.76049 2013 ft 106 kts 47°
2026-05-06 16:12 50.75125 -0.75174 2010 ft 105 kts 45°
2026-05-06 16:12 50.75491 -0.74189 2007 ft 106 kts 62°
2026-05-06 16:13 50.75791 -0.73132 2008 ft 106 kts 61°
2026-05-06 16:13 50.76080 -0.72064 2010 ft 105 kts 62°
2026-05-06 16:13 50.76369 -0.71008 2008 ft 104 kts 62°
2026-05-06 16:13 50.76668 -0.69959 2005 ft 105 kts 61°
2026-05-06 16:14 50.76966 -0.68935 2011 ft 106 kts 60°
2026-05-06 16:14 50.77265 -0.67877 2009 ft 105 kts 60°
2026-05-06 16:14 50.77568 -0.66807 2013 ft 108 kts 61°
2026-05-06 16:14 50.77875 -0.65714 2012 ft 109 kts 60°
2026-05-06 16:15 50.78158 -0.64613 2011 ft 109 kts 72°
2026-05-06 16:15 50.78292 -0.63416 2014 ft 112 kts 76°
2026-05-06 16:15 50.78412 -0.62198 2011 ft 112 kts 77°
2026-05-06 16:15 50.78528 -0.60992 2008 ft 110 kts 76°
2026-05-06 16:16 50.78647 -0.59796 2013 ft 111 kts 77°
2026-05-06 16:16 50.78769 -0.58584 2012 ft 112 kts 76°
2026-05-06 16:16 50.78887 -0.57368 2008 ft 111 kts 76°
2026-05-06 16:16 50.79012 -0.56164 2003 ft 110 kts 76°
2026-05-06 16:17 50.79121 -0.54957 2008 ft 112 kts 77°
2026-05-06 16:17 50.79236 -0.53740 2009 ft 112 kts 76°
2026-05-06 16:17 50.79344 -0.52516 2006 ft 112 kts 76°
2026-05-06 16:17 50.79458 -0.51285 1869 ft 116 kts 81°
2026-05-06 16:18 50.79482 -0.50034 1783 ft 111 kts 84°
2026-05-06 16:18 50.79538 -0.48828 1677 ft 111 kts 76°
2026-05-06 16:18 50.79659 -0.47601 1519 ft 114 kts 81°
2026-05-06 16:18 50.79701 -0.46374 1463 ft 108 kts 78°
2026-05-06 16:19 50.79798 -0.45189 1353 ft 110 kts 79°
2026-05-06 16:19 50.79840 -0.44015 1357 ft 102 kts 78°
2026-05-06 16:19 50.79936 -0.42907 1306 ft 101 kts 76°
2026-05-06 16:19 50.80045 -0.41830 1306 ft 98 kts 76°
2026-05-06 16:20 50.80132 -0.40761 1280 ft 99 kts 73°
2026-05-06 16:20 50.80254 -0.39696 1244 ft 98 kts 73°
2026-05-06 16:20 50.80381 -0.38669 1196 ft 100 kts 73°
2026-05-06 16:20 50.80526 -0.37652 1252 ft 85 kts 65°
2026-05-06 16:21 50.80692 -0.36698 1135 ft 96 kts 73°
2026-05-06 16:21 50.80832 -0.35712 1186 ft 86 kts 66°
2026-05-06 16:21 50.80960 -0.34769 1166 ft 86 kts 71°
2026-05-06 16:21 50.81120 -0.33861 1078 ft 85 kts 64°
2026-05-06 16:22 50.81317 -0.32979 963 ft 85 kts 63°
2026-05-06 16:22 50.81532 -0.32116 792 ft 78 kts 63°
2026-05-06 16:22 50.81736 -0.31382 632 ft 71 kts 50°
2026-05-06 16:22 50.82076 -0.30825 425 ft 69 kts 37°
2026-05-06 16:23 50.82451 -0.30435 259 ft 62 kts 26°
2026-05-06 16:23 50.82838 -0.30181 151 ft 62 kts 22°
2026-05-06 16:23 50.83226 -0.29946 38 ft 56 kts 22°
2026-05-06 16:23 50.83493 -0.29772 11 ft 20 kts 20°
2026-05-06 16:24 50.83547 -0.29750 11 ft 6 kts 205°
2026-05-06 16:24 50.83509 -0.29766 11 ft 6 kts 196°
2026-05-06 16:24 50.83435 -0.29810 11 ft 16 kts 200°
2026-05-06 16:24 50.83302 -0.29891 11 ft 22 kts 201°
2026-05-06 16:25 50.83242 -0.29878 10 ft 8 kts 78°
2026-05-06 16:25 50.83265 -0.29802 10 ft 7 kts 63°
2026-05-06 16:25 50.83272 -0.29729 10 ft 7 kts 104°